• In Uzbekistan
  • List of Countries
  • For 7 days
  • Water Temperature
  • Satellite Maps
  • Weather Map
  • Weather Widgets
  • user-avatar
    Login

    Hourly Weather Kitzbuhel

    Today, 6 December, Tuesday

    Time Temperature Precipitation Wind Pressure Humidity
    00:00 -6°C° 0 mm 1 mps 680 mmHg 58%
    01:00 -4°C° 0 mm 1 mps 680 mmHg 57%
    02:00 -4°C° 0 mm 1 mps 681 mmHg 57%
    03:00 -4°C° 0 mm 1 mps 681 mmHg 57%
    04:00 -4°C° 0 mm 1 mps 681 mmHg 57%
    05:00 -4°C° 0 mm 1 mps 681 mmHg 58%
    06:00 -5°C° 0 mm 2 mps 681 mmHg 59%
    07:00 -5°C° 0 mm 2 mps 682 mmHg 60%
    08:00 -4°C° 0 mm 2 mps 682 mmHg 58%
    09:00 0°C° 0 mm 1 mps 683 mmHg 57%
    10:00 +2°C° 0 mm 1 mps 684 mmHg 55%
    11:00 +3°C° 0 mm 1 mps 684 mmHg 56%
    12:00 +4°C° 0 mm 1 mps 684 mmHg 56%
    13:00 +5°C° 0 mm 1 mps 684 mmHg 57%
    14:00 +3°C° 0 mm 1 mps 683 mmHg 62%
    15:00 +1°C° 0 mm 1 mps 683 mmHg 67%
    16:00 -1°C° 0 mm 1 mps 682 mmHg 72%
    17:00 -2°C° 0 mm 1 mps 683 mmHg 71%
    18:00 -2°C° 0 mm 1 mps 683 mmHg 70%
    19:00 -3°C° 0 mm 1 mps 683 mmHg 69%
    20:00 -3°C° 0 mm 1 mps 683 mmHg 68%
    21:00 -3°C° 0 mm 1 mps 683 mmHg 66%
    22:00 -3°C° 0 mm 1 mps 684 mmHg 65%
    23:00 -3°C° 0 mm 1 mps 684 mmHg 64%

    Tomorrow, 7 December, Wednesday

    Time Temperature Precipitation Wind Pressure Humidity
    00:00 -4°C° 0 mm 1 mps 684 mmHg 63%
    01:00 -4°C° 0 mm 1 mps 684 mmHg 62%
    02:00 -4°C° 0 mm 1 mps 684 mmHg 61%
    03:00 -4°C° 0 mm 1 mps 683 mmHg 60%
    04:00 -4°C° 0 mm 1 mps 683 mmHg 59%
    05:00 -4°C° 0 mm 1 mps 683 mmHg 59%
    06:00 -4°C° 0 mm 1 mps 683 mmHg 58%
    07:00 -4°C° 0 mm 1 mps 683 mmHg 57%
    08:00 -2°C° 0 mm 1 mps 684 mmHg 55%
    09:00 +1°C° 0 mm 1 mps 685 mmHg 54%
    10:00 +3°C° 0 mm 1 mps 686 mmHg 52%
    11:00 +3°C° 0 mm 0 mps 686 mmHg 53%
    12:00 +4°C° 0 mm 0 mps 686 mmHg 54%
    13:00 +5°C° 0 mm 0 mps 686 mmHg 54%
    14:00 +3°C° 0 mm 0 mps 685 mmHg 57%
    15:00 0°C° 0 mm 0 mps 684 mmHg 61%
    16:00 -3°C° 0 mm 0 mps 684 mmHg 64%
    17:00 -2°C° 0 mm 1 mps 684 mmHg 64%
    18:00 -2°C° 0 mm 1 mps 684 mmHg 63%
    19:00 -3°C° 0 mm 1 mps 684 mmHg 63%
    20:00 -3°C° 0 mm 1 mps 684 mmHg 63%
    21:00 -3°C° 0 mm 1 mps 684 mmHg 63%
    22:00 -3°C° 0 mm 1 mps 684 mmHg 63%
    23:00 -3°C° 0 mm 1 mps 684 mmHg 62%

    Day after tomorrow, 8 December, Thursday

    Time Temperature Precipitation Wind Pressure Humidity
    00:00 -2°C° 0 mm 1 mps 684 mmHg 60%
    01:00 -2°C° 0 mm 1 mps 684 mmHg 59%
    02:00 -2°C° 0 mm 1 mps 684 mmHg 59%
    03:00 -2°C° 0 mm 1 mps 684 mmHg 58%
    04:00 -2°C° 0 mm 1 mps 684 mmHg 58%
    05:00 -2°C° 0 mm 1 mps 684 mmHg 58%
    06:00 -2°C° 0 mm 1 mps 684 mmHg 57%
    07:00 -2°C° 0 mm 1 mps 684 mmHg 56%
    08:00 0°C° 0 mm 1 mps 685 mmHg 56%
    09:00 +3°C° 0 mm 1 mps 686 mmHg 55%
    10:00 +5°C° 0 mm 1 mps 686 mmHg 54%
    11:00 +6°C° 0 mm 1 mps 686 mmHg 55%
    12:00 +7°C° 0 mm 1 mps 686 mmHg 57%
    13:00 +7°C° 0 mm 0 mps 686 mmHg 58%
    14:00 +4°C° 0 mm 0 mps 685 mmHg 61%
    15:00 +2°C° 0 mm 0 mps 684 mmHg 63%
    16:00 0°C° 0 mm 1 mps 683 mmHg 65%
    17:00 0°C° 0 mm 1 mps 684 mmHg 64%
    18:00 0°C° 0 mm 1 mps 684 mmHg 63%
    19:00 0°C° 0 mm 1 mps 684 mmHg 62%
    20:00 0°C° 0 mm 1 mps 684 mmHg 58%
    21:00 -2°C° 0 mm 2 mps 685 mmHg 54%
    22:00 -1°C° 0 mm 2 mps 685 mmHg 50%
    23:00 -1°C° 0 mm 2 mps 685 mmHg 49%

    9 December, Friday

    Time Temperature Precipitation Wind Pressure Humidity
    00:00 +1°C° 0 mm 1 mps 685 mmHg 48%
    01:00 +1°C° 0 mm 1 mps 685 mmHg 46%
    02:00 +1°C° 0 mm 1 mps 685 mmHg 46%
    03:00 +1°C° 0 mm 1 mps 685 mmHg 46%
    04:00 +2°C° 0 mm 1 mps 685 mmHg 46%
    05:00 +1°C° 0 mm 1 mps 685 mmHg 45%
    06:00 +1°C° 0 mm 1 mps 685 mmHg 43%
    07:00 -2°C° 0 mm 2 mps 685 mmHg 41%
    08:00 +2°C° 0 mm 1 mps 685 mmHg 42%
    09:00 +4°C° 0 mm 1 mps 686 mmHg 44%
    10:00 +5°C° 0 mm 1 mps 686 mmHg 45%
    11:00 +6°C° 0 mm 1 mps 686 mmHg 47%
    12:00 +7°C° 0 mm 1 mps 686 mmHg 49%
    13:00 +7°C° 0 mm 0 mps 686 mmHg 51%
    14:00 +5°C° 0 mm 0 mps 685 mmHg 50%
    15:00 +2°C° 0 mm 0 mps 684 mmHg 48%
    16:00 0°C° 0 mm 0 mps 683 mmHg 47%
    17:00 -1°C° 0 mm 0 mps 683 mmHg 48%
    18:00 -1°C° 0 mm 0 mps 683 mmHg 49%
    19:00 -2°C° 0 mm 0 mps 682 mmHg 51%
    20:00 0°C° 0 mm 1 mps 683 mmHg 49%
    21:00 0°C° 0 mm 1 mps 683 mmHg 47%
    22:00 0°C° 0 mm 1 mps 683 mmHg 44%
    23:00 +1°C° 0 mm 1 mps 683 mmHg 48%

    10 December, Saturday

    Time Temperature Precipitation Wind Pressure Humidity
    00:00 +1°C° 0 mm 2 mps 683 mmHg 51%
    01:00 +1°C° 0 mm 2 mps 683 mmHg 55%
    02:00 +1°C° 0 mm 2 mps 682 mmHg 57%
    03:00 +1°C° 0 mm 2 mps 682 mmHg 59%
    04:00 +1°C° 0 mm 2 mps 682 mmHg 61%
    05:00 +1°C° 0 mm 2 mps 682 mmHg 61%
    06:00 -1°C° 0 mm 2 mps 682 mmHg 61%
    07:00 -1°C° 0 mm 2 mps 682 mmHg 62%
    08:00 +2°C° 0 mm 2 mps 682 mmHg 60%
    09:00 +5°C° 0 mm 1 mps 683 mmHg 59%
    10:00 +6°C° 0 mm 1 mps 683 mmHg 58%
    11:00 +7°C° 0 mm 1 mps 683 mmHg 59%
    12:00 +8°C° 0 mm 1 mps 683 mmHg 61%
    13:00 +8°C° 0 mm 0 mps 683 mmHg 62%
    14:00 +6°C° 0 mm 0 mps 682 mmHg 64%
    15:00 +3°C° 0 mm 0 mps 681 mmHg 67%
    16:00 +1°C° 0 mm 0 mps 680 mmHg 69%
    17:00 0°C° 0 mm 0 mps 680 mmHg 69%
    18:00 +1°C° 0 mm 1 mps 679 mmHg 69%
    19:00 0°C° 0 mm 1 mps 679 mmHg 69%
    20:00 +1°C° 0 mm 1 mps 679 mmHg 66%
    21:00 +1°C° 0 mm 1 mps 679 mmHg 63%
    22:00 +1°C° 0 mm 1 mps 679 mmHg 61%
    23:00 +1°C° 0 mm 1 mps 679 mmHg 59%

    11 December, Sunday

    Time Temperature Precipitation Wind Pressure Humidity
    00:00 +1°C° 0 mm 1 mps 679 mmHg 57%
    01:00 -1°C° 0 mm 2 mps 679 mmHg 55%
    02:00 -1°C° 0 mm 2 mps 678 mmHg 56%
    03:00 -1°C° 0 mm 2 mps 678 mmHg 56%
    04:00 -1°C° 0 mm 2 mps 678 mmHg 57%
    05:00 -1°C° 0 mm 2 mps 677 mmHg 56%
    06:00 -1°C° 0 mm 2 mps 677 mmHg 56%
    07:00 -2°C° 0 mm 2 mps 677 mmHg 55%
    08:00 +1°C° 0 mm 2 mps 677 mmHg 56%
    09:00 +4°C° 0 mm 1 mps 677 mmHg 56%
    10:00 +5°C° 0 mm 1 mps 678 mmHg 57%
    11:00 +6°C° 0 mm 1 mps 677 mmHg 58%
    12:00 +7°C° 0 mm 1 mps 677 mmHg 60%
    13:00 +8°C° 0 mm 1 mps 676 mmHg 61%
    14:00 +6°C° 0 mm 1 mps 676 mmHg 64%
    15:00 +4°C° 0 mm 1 mps 675 mmHg 67%
    16:00 +2°C° 0 mm 1 mps 674 mmHg 70%
    17:00 +1°C° 0.2 mm 2 mps 674 mmHg 71%
    18:00 +2°C° 0.2 mm 2 mps 675 mmHg 72%
    19:00 +2°C° 0.2 mm 2 mps 675 mmHg 74%
    20:00 +2°C° 0.8 mm 2 mps 676 mmHg 79%
    21:00 +3°C° 0.8 mm 2 mps 676 mmHg 85%
    22:00 +3°C° 0.8 mm 2 mps 676 mmHg 91%
    23:00 +3°C° 0.6 mm 2 mps 677 mmHg 93%
    Show more